Home > Weather > Toulon > Past weeks

Flag for France Past Weather in Toulon, Provence-Alpes-Côte d'Azur, France — Yesterday and Last 2 Weeks

Now
82 °F

Passing clouds.


Feels Like: 85 °F
Forecast: 64 / 86 °F
Wind: 9 mph from Southwest

Location: Hyeres Airport

Current Time: Jul 29, 2016 at 4:11:04 PM

Latest Report: Jul 29, 2016 at 3:30 PM


Visibility: N/A

Pressure: 29.98 "Hg

Humidity: 62%

Dew Point: 68 °F

Location of ToulonLocation

Past Weather in Toulon — Graph

°F

Toulon Temperature Yesterday

Maximum temperature yesterday: 88 °F (at 6:00 PM)
Minimum temperature yesterday: 64 °F (at 5:00 AM)
Average temperature yesterday: 77 °F

High & Low Weather Summary for the Past Weeks

 TemperatureHumidityPressure
High93 °F (Jul 27, 6:30 PM)94% (Jul 21, 10:30 PM)30.18 "Hg (Jul 21, 10:30 PM)
Low52 °F (Jul 19, 5:30 AM)21% (Jul 14, 3:00 PM)29.86 "Hg (Jul 14, 6:00 PM)
Average74 °F61%30.00 "Hg
* Reported Jul 14 2:00 PM — Jul 29 2:30 PM, Toulon, Weather by CustomWeather, © 2016

Note: Actual official high and low records may vary slightly from our data, if they occured in-between our weather recording intervals... More about our weather records

Advertising

Toulon Weather History for the Previous 24 Hours

Scroll right to see more
 ConditionsComfort  
Time TempWeatherWind HumidityBarometerVisibility
2:30 PM
Fri, Jul 29
81 °FPassing clouds.10 mph70%29.98 "HgN/A
2:00 PM81 °FSunny.12 mph70%29.98 "Hg10 mi
1:30 PM82 °FPassing clouds.9 mph62%29.98 "HgN/A
1:00 PM82 °FScattered clouds.10 mph62%29.98 "HgN/A
12:30 PM82 °FPassing clouds.9 mph66%29.98 "HgN/A
12:00 PM81 °FPassing clouds.7 mph70%29.98 "HgN/A
11:30 AM81 °FPassing clouds.8 mph70%29.98 "HgN/A
11:00 AM81 °FSunny.8 mph66%29.98 "Hg10 mi
10:30 AM79 °FSunny.8 mph74%29.98 "Hg10 mi
10:00 AM81 °FPassing clouds.6 mph62%29.98 "HgN/A
9:30 AM79 °FPassing clouds.5 mph70%29.98 "HgN/A
9:00 AM77 °FPassing clouds.5 mph79%29.98 "HgN/A
8:30 AM77 °FSunny.5 mph74%29.95 "Hg10 mi
8:00 AM73 °FSunny.6 mph69%29.95 "Hg10 mi
7:30 AM70 °FSunny.3 mph83%29.95 "Hg10 mi
7:00 AM66 °FClear.2 mph83%29.95 "Hg10 mi
6:30 AM64 °FClear.3 mph83%29.95 "Hg10 mi
6:00 AM64 °FClear.5 mph83%29.95 "Hg10 mi
5:30 AM64 °FClear.No wind83%29.95 "Hg10 mi
5:00 AM66 °FClear.No wind78%29.95 "Hg10 mi
4:30 AM66 °FClear.No wind83%29.95 "Hg10 mi
4:00 AM66 °FClear.3 mph83%29.95 "Hg10 mi
3:30 AM68 °FClear.2 mph78%29.95 "Hg10 mi
3:00 AM68 °FClear.No wind73%29.95 "Hg10 mi
2:30 AM72 °FClear.1 mph73%29.95 "Hg10 mi
2:00 AM70 °FClear.2 mph73%29.95 "Hg10 mi
1:30 AM72 °FClear.No wind69%29.95 "Hg10 mi
1:00 AM70 °FClear.7 mph73%29.95 "Hg10 mi
12:30 AM75 °FClear.No wind61%29.95 "Hg10 mi
12:00 AM77 °FClear.2 mph61%29.92 "Hg10 mi
11:30 PM
Thu, Jul 28
77 °FPassing clouds.3 mph61%29.92 "HgN/A
11:00 PM77 °FClear.9 mph61%29.92 "Hg10 mi
10:30 PM77 °FClear.9 mph65%29.92 "Hg10 mi
10:00 PM77 °FClear.9 mph65%29.92 "Hg10 mi
9:30 PM79 °FSunny.8 mph58%29.92 "Hg10 mi
9:00 PM81 °FSunny.10 mph51%29.92 "Hg10 mi
8:30 PM82 °FSunny.12 mph45%29.89 "Hg10 mi
8:00 PM86 °FPassing clouds.16 mph40%29.89 "HgN/A
7:30 PM84 °FSunny.17 mph43%29.89 "Hg10 mi
7:00 PM86 °FSunny.15 mph40%29.89 "Hg10 mi
6:30 PM88 °FSunny.14 mph38%29.89 "Hg10 mi
6:00 PM88 °FSunny.8 mph38%29.89 "Hg10 mi
5:30 PM82 °FSunny.18 mph55%29.92 "Hg10 mi
5:00 PM82 °FSunny.13 mph55%29.92 "Hg10 mi
4:30 PM84 °FSunny.12 mph51%29.95 "Hg10 mi
4:00 PM82 °FSunny.15 mph58%29.95 "Hg10 mi
Weather by CustomWeather, © 2016

See weather overviewHow to use our weather pages